| time (UTC) | temp F | wind direction | speed MPH | gust MPH | rain 1hr in | rain 24hr in | rain mn in | humidity % | barometer mb |
| 20260831064602 | 54 | 323 | 2.0 | 4.0 | 0.00 | 0.00 | 0.00 | 44 | 1017.8 |
| 20260831063101 | 57 | 322 | 0.0 | 2.0 | 0.00 | 0.00 | 0.00 | 41 | 1017.8 |
| 20260831061602 | 56 | 325 | 0.0 | 4.0 | 0.00 | 0.00 | 0.00 | 43 | 1017.8 |
| 20260831060104 | 54 | 321 | 0.0 | 1.0 | 0.00 | 0.00 | 0.00 | 46 | 1017.8 |
| 20260831054602 | 56 | 356 | 2.0 | 3.0 | 0.00 | 0.00 | 0.00 | 43 | 1017.6 |
| 20260831053103 | 59 | 333 | 0.0 | 5.0 | 0.00 | 0.00 | 0.00 | 38 | 1017.6 |
| 20260831051602 | 59 | 30 | 1.0 | 3.0 | 0.00 | 0.00 | 0.00 | 38 | 1017.7 |
| 20260831044602 | 62 | 330 | 2.0 | 6.0 | 0.00 | 0.00 | 0.00 | 35 | 1017.6 |
| 20260831043103 | 61 | 27 | 5.0 | 7.0 | 0.00 | 0.00 | 0.00 | 36 | 1017.5 |
| 20260831041603 | 61 | 316 | 1.0 | 6.0 | 0.00 | 0.00 | 0.00 | 36 | 1017.3 |
| 20260831033103 | 61 | 330 | 1.0 | 4.0 | 0.00 | 0.00 | 0.00 | 37 | 1017.0 |
| 20260831023102 | 63 | 321 | 0.0 | 5.0 | 0.00 | 0.00 | 0.00 | 37 | 1016.6 |
| 20260831021604 | 64 | 321 | 2.0 | 4.0 | 0.00 | 0.00 | 0.00 | 37 | 1016.5 |
| 20260831020105 | 69 | 305 | 0.0 | 3.0 | 0.00 | 0.00 | 0.00 | 33 | 1016.5 |
| 20260831014604 | 72 | 108 | 0.0 | 1.0 | 0.00 | 0.00 | 0.00 | 28 | 1016.5 |
| 20260831013103 | 73 | 330 | 0.0 | 4.0 | 0.00 | 0.00 | 0.00 | 28 | 1016.5 |
| 20260831011601 | 74 | 72 | 1.0 | 2.0 | 0.00 | 0.00 | 0.00 | 27 | 1016.6 |
| 20260831004604 | 75 | 239 | 1.0 | 13.0 | 0.00 | 0.00 | 0.00 | 23 | 1016.6 |
| 20260831003102 | 76 | 248 | 1.0 | 9.0 | 0.00 | 0.00 | 0.00 | 22 | 1016.6 |
| 20260831001601 | 77 | 226 | 4.0 | 9.0 | 0.00 | 0.00 | 0.00 | 22 | 1016.6 |
| 20260831000104 | 77 | 211 | 5.0 | 10.0 | 0.00 | 0.00 | 0.00 | 22 | 1016.7 |
| 20260830234602 | 78 | 238 | 2.0 | 12.0 | 0.00 | 0.00 | 0.00 | 21 | 1016.7 |
| 20260830233102 | 79 | 131 | 0.0 | 5.0 | 0.00 | 0.00 | 0.00 | 19 | 1016.9 |
| 20260830231602 | 78 | 232 | 7.0 | 10.0 | 0.00 | 0.00 | 0.00 | 20 | 1017.0 |
| 20260830230104 | 78 | 118 | 1.0 | 5.0 | 0.00 | 0.00 | 0.00 | 19 | 1017.2 |
| 20260830223107 | 76 | 121 | 2.0 | 9.0 | 0.00 | 0.00 | 0.00 | 20 | 1017.7 |
| 20260830221602 | 76 | 103 | 3.0 | 8.0 | 0.00 | 0.00 | 0.00 | 22 | 1017.7 |
| 20260830214605 | 74 | 112 | 1.0 | 8.0 | 0.00 | 0.00 | 0.00 | 25 | 1018.1 |
| 20260830213102 | 74 | 238 | 0.0 | 7.0 | 0.00 | 0.00 | 0.00 | 23 | 1018.2 |
| 20260830211603 | 74 | 104 | 3.0 | 12.0 | 0.00 | 0.00 | 0.00 | 26 | 1018.4 |
| 20260830203102 | 72 | 142 | 3.0 | 8.0 | 0.00 | 0.00 | 0.00 | 24 | 1018.9 |
| 20260830201605 | 72 | 131 | 4.0 | 10.0 | 0.00 | 0.00 | 0.00 | 26 | 1018.9 |
| 20260830200104 | 71 | 131 | 3.0 | 8.0 | 0.00 | 0.00 | 0.00 | 29 | 1019.2 |
| 20260830194607 | 71 | 153 | 1.0 | 6.0 | 0.00 | 0.00 | 0.00 | 30 | 1019.4 |
| 20260830193103 | 70 | 210 | 5.0 | 6.0 | 0.00 | 0.00 | 0.00 | 33 | 1019.5 |
| 20260830191602 | 68 | 288 | 0.0 | 8.0 | 0.00 | 0.00 | 0.00 | 31 | 1019.5 |
| 20260830190103 | 67 | 79 | 1.0 | 6.0 | 0.00 | 0.00 | 0.00 | 33 | 1019.7 |
| 20260830184602 | 67 | 221 | 0.0 | 8.0 | 0.00 | 0.00 | 0.00 | 34 | 1019.8 |
| 20260830183102 | 66 | 129 | 3.0 | 6.0 | 0.00 | 0.00 | 0.00 | 36 | 1020.0 |
| 20260830181602 | 66 | 129 | 2.0 | 6.0 | 0.00 | 0.00 | 0.00 | 37 | 1020.2 |
| 20260830174604 | 64 | 120 | 2.0 | 6.0 | 0.00 | 0.00 | 0.00 | 41 | 1020.4 |
| 20260830173102 | 62 | 112 | 2.0 | 6.0 | 0.00 | 0.00 | 0.00 | 46 | 1020.5 |
| 20260830171602 | 62 | 112 | 2.0 | 6.0 | 0.00 | 0.00 | 0.00 | 46 | 1020.5 |
| 20260830164605 | 60 | 91 | 1.0 | 3.0 | 0.00 | 0.00 | 0.00 | 47 | 1020.8 |
| 20260830163102 | 59 | 120 | 0.0 | 2.0 | 0.00 | 0.00 | 0.00 | 48 | 1020.9 |
| 20260830161602 | 58 | 64 | 0.0 | 1.0 | 0.00 | 0.00 | 0.00 | 49 | 1021.0 |
| 20260830160107 | 57 | 143 | 0.0 | 4.0 | 0.00 | 0.00 | 0.00 | 52 | 1020.9 |
| 20260830154603 | 56 | 99 | 0.0 | 2.0 | 0.00 | 0.00 | 0.00 | 53 | 1020.9 |
| 20260830153102 | 55 | 108 | 0.0 | 1.0 | 0.00 | 0.00 | 0.00 | 53 | 1020.9 |
| 20260830151603 | 53 | 194 | 0.0 | 1.0 | 0.00 | 0.00 | 0.00 | 59 | 1021.0 |
| 20260830150106 | 53 | 218 | 0.0 | 1.0 | 0.00 | 0.00 | 0.00 | 60 | 1021.1 |
| 20260830144603 | 52 | 285 | 0.0 | 0.0 | 0.00 | 0.00 | 0.00 | 61 | 1021.0 |
| 20260830143101 | 49 | 275 | 0.0 | 0.0 | 0.00 | 0.00 | 0.00 | 66 | 1020.9 |
| 20260830141603 | 46 | 276 | 0.0 | 1.0 | 0.00 | 0.00 | 0.00 | 68 | 1020.7 |
| 20260830140101 | 43 | 322 | 0.0 | 1.0 | 0.00 | 0.00 | 0.00 | 74 | 1020.5 |
| 20260830134602 | 42 | 327 | 2.0 | 2.0 | 0.00 | 0.00 | 0.00 | 75 | 1020.4 |
| 20260830133102 | 41 | 8 | 0.0 | 4.0 | 0.00 | 0.00 | 0.00 | 74 | 1020.1 |
| 20260830131602 | 40 | 327 | 0.0 | 1.0 | 0.00 | 0.00 | 0.00 | 77 | 1020.0 |
| 20260830130105 | 40 | 338 | 0.0 | 1.0 | 0.00 | 0.00 | 0.00 | 76 | 1019.8 |
| 20260830124602 | 41 | 340 | 0.0 | 2.0 | 0.00 | 0.00 | 0.00 | 74 | 1019.6 |
| 20260830123103 | 42 | 283 | 0.0 | 1.0 | 0.00 | 0.00 | 0.00 | 71 | 1019.7 |
| 20260830121604 | 42 | 4 | 0.0 | 1.0 | 0.00 | 0.00 | 0.00 | 72 | 1019.5 |
| 20260830114605 | 44 | 346 | 0.0 | 2.0 | 0.00 | 0.00 | 0.00 | 68 | 1019.4 |
| 20260830113106 | 46 | 299 | 0.0 | 3.0 | 0.00 | 0.00 | 0.00 | 65 | 1019.3 |
| 20260830104603 | 44 | 338 | 0.0 | 3.0 | 0.00 | 0.00 | 0.00 | 67 | 1019.0 |
| 20260830103104 | 46 | 328 | 1.0 | 4.0 | 0.00 | 0.00 | 0.00 | 65 | 1019.0 |
| 20260830100104 | 46 | 300 | 0.0 | 2.0 | 0.00 | 0.00 | 0.00 | 65 | 1018.8 |
| 20260830094602 | 45 | 324 | 2.0 | 4.0 | 0.00 | 0.00 | 0.00 | 66 | 1018.7 |
| 20260830093102 | 44 | 3 | 0.0 | 1.0 | 0.00 | 0.00 | 0.00 | 68 | 1018.7 |
| 20260830091604 | 46 | 6 | 0.0 | 3.0 | 0.00 | 0.00 | 0.00 | 65 | 1018.7 |
| 20260830084607 | 48 | 13 | 0.0 | 4.0 | 0.00 | 0.00 | 0.00 | 62 | 1018.6 |
| 20260830083103 | 48 | 336 | 2.0 | 5.0 | 0.00 | 0.00 | 0.00 | 61 | 1018.4 |
| 20260830081602 | 48 | 328 | 0.0 | 1.0 | 0.00 | 0.00 | 0.00 | 61 | 1018.1 |
| 20260830074605 | 49 | 345 | 0.0 | 1.0 | 0.00 | 0.00 | 0.00 | 59 | 1017.9 |
| 20260830071604 | 49 | 311 | 0.0 | 2.0 | 0.00 | 0.00 | 0.00 | 60 | 1017.4 |
| 20260830070107 | 48 | 326 | 0.0 | 2.0 | 0.00 | 0.00 | 0.00 | 63 | 1017.6 |